Location: City of Moscow
(46.7306°N, 116.9989°W)
Time: 04:00:27
(UTC+00:00)

USA 234 - Pass Details

Date: 08 March 2026
Orbit: 1102 x 1106 km, 123.0° (Epoch: 4 January)

Event Time Altitude Azimuth Distance (km) Brightness Sun altitude
Exits shadow 03:36:45 32° 87° (E) 1,805 3.9 -20.2°
Maximum altitude 03:39:44 56° 25° (NNE) 1,294 3.5 -20.7°
Drops below altitude 10° 03:46:06 10° 309° (NW) 2,971 6.5 -21.7°
Sets 03:48:38 0° 306° (NW) 3,931 7.4 -22.1°
